Regional Weather Roundup
Issued by NWS

Home | Current Version | Previous Version | Text Only | Print | Product List | Glossary Off
Versions: 1 2 3 4 5 6 7 8 9 10 11 12 13 14 15 16 17 18 19 20 21 22 23 24 25 26 27 28 29 30 31

000
ASUS45 KBOU 291407
RWRCO

WEATHER ROUNDUP FOR COLORADO
NATIONAL WEATHER SERVICE DENVER/BOULDER CO
800 AM MDT WED OCT 29 2014

NOTE: "FAIR" INDICATES FEW OR NO CLOUDS BELOW 12000 FEET WITH NO
SIGNIFICANT WEATHER AND/OR OBSTRUCTIONS TO VISIBILITY.

COZ001>005-013-030-031-291500-
...NORTHWEST COLORADO...

CITY           SKY/WX    TMP DP  RH WIND       PRES   REMARKS
CRAIG          CLEAR     21  15  78 W5        30.33S WCI  15
HAYDEN         CLEAR     27  18  69 E10       30.33S WCI  17
MEEKER         CLEAR     26  19  74 CALM      30.34R
MOUNT WERNER   NOT AVBL
STEAMBOAT SPGS CLEAR     22  19  88 NE3       30.34S
WALDEN         PTCLDY    21  12  68 SE7       30.32S WCI  13
$$

COZ006>008-011-291500-
...WEST CENTRAL VALLEYS...

CITY           SKY/WX    TMP DP  RH WIND       PRES   REMARKS
GRAND JUNCTION CLEAR     29  15  56 E3        30.32R
MONTROSE       PTCLDY    29  16  58 S7        30.36R WCI  22
EAGLE          CLEAR     19  12  73 CALM      30.43R
RIFLE          CLEAR     23  14  68 SE3       30.37R
DELTA          PTCLDY    30  17  58 N7        30.36R WCI  24
NUCLA          PTCLDY    32  14  47 E9        30.38R WCI  24
$$

COZ017>023-064>068-291500-
...SOUTHWEST COLORADO...

CITY           SKY/WX    TMP DP  RH WIND       PRES   REMARKS
DURANGO        CLEAR     27  19  72 CALM      30.35R
CORTEZ         CLEAR     25  14  63 NE6       30.34R WCI  18
PAGOSA SPRINGS CLEAR     27  17  64 CALM      30.37R
TELLURIDE      CLEAR     34  16  47 E6        30.43S WCI  29
WOLF CREEK PAS PTCLDY    32   3  29 N3        30.49R
$$

COZ009-010-012-014-032>034-037-058>063-291500-
...CENTRAL COLORADO...

CITY           SKY/WX    TMP DP  RH WIND       PRES   REMARKS
ASPEN          CLEAR     26  14  60 CALM      30.37R
BUENA VISTA    CLEAR     28   8  42 CALM      30.34R
COPPER MTN     PTCLDY    30   3  31 SW6       30.45R WCI  24
BERTHOUD PASS  FAIR      23  19  86 NW29G36   30.42R WCI   6
COTTONWOOD PAS CLEAR     41   5  22 NW6       30.37S
GUNNISON       PTCLDY    16   7  67 CALM      30.46R
KREMMLING      CLEAR     19  16  86 CALM        N/A
LEADVILLE      PTCLDY    28   8  43 N6        30.38R WCI  22
MONARCH PASS   PTCLDY    28   1  31 W38       30.54R WCI  11
SALIDA         CLEAR     32   8  36 N7        30.40R WCI  25
SUNLIGHT       CLEAR     32  14  47 CALM      30.46R
WILKERSON PASS NOT AVBL
$$

COZ069>075-291500-
...SAN LUIS VALLEY/SANGRE DE CRISTO MOUNTAINS...

CITY           SKY/WX    TMP DP  RH WIND       PRES   REMARKS
ALAMOSA        MOCLDY    16   8  71 CALM      30.37R
LA VETA PASS   CLEAR     32   5  32 S6        30.39R WCI  26
SAGUACHE       PTCLDY    30   3  31 N12       30.38S WCI  21
$$

COZ035-036-038>040-291500-
...NORTHERN COLORADO FRONT RANGE...

CITY           SKY/WX    TMP DP  RH WIND       PRES   REMARKS
DENVER INTL AP PTCLDY    38  18  44 S8        30.17S
DMNS CITY PARK   N/A     42  15  34 S5G13     30.18S
AURORA         PTCLDY    39  17  39 S10       30.19S
FRONT RANGE AP NOT AVBL
ERIE MUNI ARPT CLEAR     26  24  89 CALM      30.17S
BOULDER MUN AP CLEAR     34  23  64 CALM      30.17S
CENTENNIAL     PTCLDY    37  18  46 S6        30.19S
BROOMFIELD     NOT AVBL
FORT COLLINS   PTCLDY    32  21  64 CALM      30.18S
LONGMONT       PTCLDY    30  22  71 CALM      30.19S
$$

COZ041-046-047-076>085-087-088-291500-
...PIKES PEAK/PALMER DIVIDE AND SOUTHERN FOOTHILLS...

CITY           SKY/WX    TMP DP  RH WIND       PRES   REMARKS
COLO. SPRINGS  CLEAR     38  17  42 N7        30.23S
A. F. ACADEMY  CLEAR     30  15  53 N6        30.23S WCI  24
ELLICOTT       NOT AVBL
FALCON         CLEAR     36  15  42 W6        30.25R
FORT CARSON    CLEAR     36  19  49 NW13      30.21R
LIMON          PTCLDY    26  21  81 W5        30.20S WCI  20
MONUMENT HILL  CLEAR     34  14  44 SW8       30.23S WCI  27
TRINIDAD       CLEAR     37  20  50 W10       30.24R
$$

COZ042>045-048>051-090-091-291500-
...NORTHEAST COLORADO...

CITY           SKY/WX    TMP DP  RH WIND       PRES   REMARKS
GREELEY ARPT   PTCLDY    25  16  68 CALM      30.19S
AKRON          PTCLDY    37  23  56 W13       30.16R
BURLINGTON     CLEAR     35  26  69 W5        30.17S WCI  31
WRAY           PTCLDY    29  23  80 SW6       30.16S WCI  23
STERLING       PTCLDY    28  27  93 S6        30.16S WCI  22
HOLYOKE        PTCLDY    30  25  80 W3        30.14F
FORT MORGAN    PTCLDY    27  22  80 W8        30.17S WCI  18
$$

COZ086-089-092>099-291500-
...SOUTHEAST COLORADO...

CITY           SKY/WX    TMP DP  RH WIND       PRES   REMARKS
PUEBLO         CLEAR     32  24  72 SW6       30.21R WCI  26
LA JUNTA       CLEAR     37  25  61 W5        30.21R
LAMAR          CLEAR     32  28  85 SW3       30.19R
SPRINGFIELD      N/A     34  29  82 CALM      30.20R
$$



USA.gov is the U.S. government's official web portal to all federal, state and local government web resources and services.